Private Wetterstation Wechselburg
Wetterdaten: Sonntag, 01.03.2020
Datum Zeit Temp. +2m Bodentemp. Temp.+5cm Temp. Wind Windchill X Diff Temp. Feuchte +2m Feuchte +5cm Luftdruck Regen Wind Richtung Richtung Sonnenschein Taupunkt Windchill Windben
01.03.2020 00:00 7,9 C 7,3 C 7,2 C 7,4 C 5,8 C 0,0 C 70 % 74 % 1001,9 hPa 0,0 l/m 10,8 km/h (2 Bft) S 180 0 min 2,8 C 3,5 C 14,0 km/h (3 Bft)
01.03.2020 00:05 7,8 C 7,3 C 7,1 C 7,3 C 5,7 C 0,0 C 71 % 75 % 1001,9 hPa 0,0 l/m 10,6 km/h (2 Bft) S-SO 157 0 min 2,9 C 3,4 C 6,9 km/h (2 Bft)
01.03.2020 00:10 7,6 C 7,3 C 6,9 C 7,1 C 6,2 C 0,0 C 72 % 75 % 1001,9 hPa 0,0 l/m 7,4 km/h (2 Bft) O-NO 67 0 min 2,9 C 4,7 C 4,3 km/h (1 Bft)
01.03.2020 00:15 7,4 C 7,3 C 6,7 C 7,0 C 6,3 C 0,0 C 73 % 76 % 1001,9 hPa 0,0 l/m 6,1 km/h (2 Bft) S-SW 202 0 min 2,9 C 5,2 C 10,1 km/h (2 Bft)
01.03.2020 00:20 7,4 C 7,3 C 6,7 C 7,0 C 6,1 C 0,0 C 73 % 77 % 1001,9 hPa 0,0 l/m 6,4 km/h (2 Bft) W-SW 247 0 min 2,9 C 4,9 C 7,7 km/h (2 Bft)
01.03.2020 00:25 7,2 C 7,3 C 6,5 C 6,8 C 5,9 C 0,0 C 74 % 78 % 1001,9 hPa 0,0 l/m 6,3 km/h (2 Bft) O-SO 112 0 min 2,9 C 4,7 C 13,0 km/h (3 Bft)
01.03.2020 00:30 7,2 C 7,3 C 6,4 C 6,7 C 5,8 C 0,0 C 75 % 78 % 1001,9 hPa 0,0 l/m 6,1 km/h (2 Bft) S 180 0 min 3,1 C 4,6 C 6,6 km/h (2 Bft)
01.03.2020 00:35 7,0 C 7,3 C 6,1 C 6,4 C 5,2 C 0,0 C 75 % 78 % 1001,9 hPa 0,0 l/m 6,9 km/h (2 Bft) SW 225 0 min 2,9 C 3,7 C 11,3 km/h (2 Bft)
01.03.2020 00:40 6,9 C 7,3 C 6,1 C 6,3 C 5,0 C 0,0 C 76 % 79 % 1002,5 hPa 0,0 l/m 6,9 km/h (2 Bft) S-SW 202 0 min 3,0 C 3,4 C 4,5 km/h (1 Bft)
01.03.2020 00:45 6,8 C 7,3 C 5,9 C 6,3 C 5,4 C 0,0 C 76 % 80 % 1002,5 hPa 0,0 l/m 4,3 km/h (1 Bft) S-SO 157 0 min 2,9 C 5,4 C 2,9 km/h (1 Bft)
01.03.2020 00:50 6,7 C 7,2 C 5,8 C 6,4 C 5,9 C 0,0 C 77 % 81 % 1002,5 hPa 0,0 l/m 3,2 km/h (1 Bft) O-NO 67 0 min 3,0 C 5,9 C 4,0 km/h (1 Bft)
01.03.2020 00:55 6,7 C 7,2 C 5,8 C 6,2 C 5,2 C 0,0 C 78 % 81 % 1002,5 hPa 0,0 l/m 4,7 km/h (1 Bft) SW 225 0 min 3,1 C 4,4 C 8,7 km/h (2 Bft)
01.03.2020 01:00 6,5 C 7,2 C 5,7 C 5,9 C 4,6 C 0,0 C 78 % 81 % 1002,8 hPa 0,0 l/m 6,6 km/h (2 Bft) S-SO 157 0 min 2,9 C 3,1 C 9,7 km/h (2 Bft)
01.03.2020 01:05 6,5 C 7,2 C 5,6 C 5,7 C 4,1 C 0,0 C 79 % 81 % 1002,8 hPa 0,0 l/m 7,6 km/h (2 Bft) SO 135 0 min 3,1 C 2,2 C 6,8 km/h (2 Bft)
01.03.2020 01:10 6,5 C 7,2 C 5,5 C 5,8 C 4,3 C 0,0 C 79 % 82 % 1002,8 hPa 0,0 l/m 6,8 km/h (2 Bft) SO 135 0 min 3,1 C 2,7 C 10,1 km/h (2 Bft)
01.03.2020 01:15 6,4 C 7,2 C 5,4 C 5,9 C 4,8 C 0,0 C 79 % 82 % 1002,8 hPa 0,0 l/m 5,0 km/h (1 Bft) S-SO 157 0 min 3,0 C 3,9 C 3,9 km/h (1 Bft)
01.03.2020 01:20 6,3 C 7,2 C 5,4 C 5,8 C 4,8 C 0,0 C 79 % 82 % 1002,6 hPa 0,0 l/m 4,5 km/h (1 Bft) W-SW 247 0 min 2,9 C 4,8 C 2,3 km/h (1 Bft)
01.03.2020 01:25 6,2 C 7,2 C 5,3 C 5,7 C 4,7 C 0,0 C 79 % 82 % 1002,6 hPa 0,0 l/m 4,5 km/h (1 Bft) O-SO 112 0 min 2,8 C 4,7 C 4,5 km/h (1 Bft)
01.03.2020 01:30 6,3 C 7,2 C 5,3 C 5,6 C 4,3 C 0,0 C 80 % 82 % 1002,6 hPa 0,0 l/m 5,6 km/h (1 Bft) S-SO 157 0 min 3,1 C 3,1 C 12,9 km/h (3 Bft)
01.03.2020 01:35 6,2 C 7,2 C 5,3 C 5,6 C 4,4 C 0,0 C 80 % 82 % 1002,6 hPa 0,0 l/m 5,5 km/h (1 Bft) NO 45 0 min 3,0 C 3,2 C 4,2 km/h (1 Bft)
01.03.2020 01:40 6,3 C 7,2 C 5,3 C 5,7 C 4,5 C 0,0 C 80 % 82 % 1003,2 hPa 0,0 l/m 5,0 km/h (1 Bft) S 180 0 min 3,1 C 3,5 C 13,7 km/h (3 Bft)
01.03.2020 01:45 6,3 C 7,2 C 5,4 C 6,0 C 5,4 C 0,0 C 80 % 82 % 1003,2 hPa 0,0 l/m 3,4 km/h (1 Bft) W-SW 247 0 min 3,1 C 5,4 C 10,8 km/h (2 Bft)
01.03.2020 01:50 6,2 C 7,2 C 5,4 C 6,0 C 5,5 C 0,0 C 80 % 82 % 1003,2 hPa 0,0 l/m 3,4 km/h (1 Bft) S-SW 202 0 min 3,0 C 5,5 C 4,8 km/h (1 Bft)
01.03.2020 01:55 6,3 C 7,2 C 5,5 C 6,0 C 5,4 C 0,0 C 80 % 82 % 1003,2 hPa 0,0 l/m 3,9 km/h (1 Bft) O-NO 67 0 min 3,1 C 5,4 C 5,0 km/h (1 Bft)
01.03.2020 02:00 6,3 C 7,2 C 5,5 C 5,9 C 5,2 C 0,0 C 80 % 82 % 1002,7 hPa 0,0 l/m 4,2 km/h (1 Bft) O-SO 112 0 min 3,1 C 5,2 C 17,4 km/h (3 Bft)
01.03.2020 02:05 6,4 C 7,2 C 5,5 C 6,0 C 5,1 C 0,0 C 80 % 82 % 1002,7 hPa 0,0 l/m 5,0 km/h (1 Bft) O-SO 112 0 min 3,2 C 4,2 C 6,8 km/h (2 Bft)
01.03.2020 02:10 6,4 C 7,2 C 5,6 C 5,8 C 4,7 C 0,0 C 80 % 82 % 1002,7 hPa 0,0 l/m 6,4 km/h (2 Bft) S 180 0 min 3,2 C 3,2 C 6,3 km/h (2 Bft)
01.03.2020 02:15 6,5 C 7,2 C 5,7 C 6,0 C 4,9 C 0,0 C 80 % 82 % 1002,7 hPa 0,0 l/m 6,4 km/h (2 Bft) O-NO 67 0 min 3,3 C 3,5 C 6,3 km/h (2 Bft)
01.03.2020 02:20 6,5 C 7,2 C 5,8 C 6,1 C 5,2 C 0,0 C 79 % 81 % 1002,9 hPa 0,0 l/m 5,8 km/h (2 Bft) N-NW 337 0 min 3,1 C 4,0 C 6,4 km/h (2 Bft)
01.03.2020 02:25 6,7 C 7,2 C 5,9 C 6,3 C 5,6 C 0,0 C 79 % 81 % 1002,9 hPa 0,0 l/m 5,1 km/h (1 Bft) SO 135 0 min 3,3 C 4,7 C 7,1 km/h (2 Bft)
01.03.2020 02:30 6,7 C 7,2 C 6,0 C 6,5 C 6,0 C 0,0 C 79 % 81 % 1002,9 hPa 0,0 l/m 4,3 km/h (1 Bft) NO 45 0 min 3,3 C 6,0 C 5,0 km/h (1 Bft)
01.03.2020 02:35 6,7 C 7,2 C 6,0 C 6,6 C 6,3 C 0,0 C 79 % 80 % 1002,9 hPa 0,0 l/m 4,0 km/h (1 Bft) SW 225 0 min 3,3 C 6,3 C 5,8 km/h (2 Bft)
01.03.2020 02:40 6,7 C 7,1 C 6,1 C 6,5 C 6,2 C 0,0 C 78 % 79 % 1002,8 hPa 0,0 l/m 4,3 km/h (1 Bft) SO 135 0 min 3,1 C 6,2 C 10,8 km/h (2 Bft)
01.03.2020 02:45 6,8 C 7,1 C 6,1 C 6,6 C 6,2 C 0,0 C 77 % 79 % 1002,8 hPa 0,0 l/m 4,7 km/h (1 Bft) S 180 0 min 3,1 C 5,6 C 5,8 km/h (2 Bft)
01.03.2020 02:50 6,8 C 7,1 C 6,1 C 6,6 C 6,1 C 0,0 C 77 % 79 % 1002,8 hPa 0,0 l/m 5,0 km/h (1 Bft) S 180 0 min 3,1 C 5,3 C 4,7 km/h (1 Bft)
01.03.2020 02:55 6,7 C 7,1 C 6,0 C 6,4 C 5,7 C 0,0 C 77 % 79 % 1002,8 hPa 0,0 l/m 4,8 km/h (1 Bft) SW 225 0 min 3,0 C 5,0 C 8,9 km/h (2 Bft)
01.03.2020 03:00 6,7 C 7,1 C 5,9 C 6,4 C 5,7 C 0,0 C 77 % 79 % 1002,4 hPa 0,0 l/m 4,8 km/h (1 Bft) SO 135 0 min 3,0 C 5,0 C 8,4 km/h (2 Bft)
01.03.2020 03:05 6,7 C 7,1 C 5,8 C 6,2 C 5,2 C 0,0 C 77 % 79 % 1002,4 hPa 0,0 l/m 6,0 km/h (2 Bft) S 180 0 min 3,0 C 4,0 C 7,1 km/h (2 Bft)
01.03.2020 03:10 6,6 C 7,1 C 5,7 C 6,1 C 5,2 C 0,0 C 77 % 79 % 1002,4 hPa 0,0 l/m 5,8 km/h (2 Bft) S 180 0 min 2,9 C 4,0 C 4,7 km/h (1 Bft)
01.03.2020 03:15 6,7 C 7,1 C 5,8 C 6,2 C 5,2 C 0,0 C 77 % 79 % 1002,4 hPa 0,0 l/m 5,8 km/h (2 Bft) S 180 0 min 3,0 C 4,0 C 8,9 km/h (2 Bft)
01.03.2020 03:20 6,6 C 7,1 C 5,7 C 6,0 C 4,8 C 0,0 C 77 % 80 % 1002,9 hPa 0,0 l/m 6,4 km/h (2 Bft) SO 135 0 min 2,9 C 3,4 C 7,1 km/h (2 Bft)
01.03.2020 03:25 6,6 C 7,1 C 5,7 C 6,1 C 4,6 C 0,0 C 77 % 80 % 1002,9 hPa 0,0 l/m 8,0 km/h (2 Bft) SO 135 0 min 2,9 C 2,7 C 10,6 km/h (2 Bft)
01.03.2020 03:30 6,6 C 7,1 C 5,6 C 6,1 C 4,4 C 0,0 C 76 % 80 % 1002,9 hPa 0,0 l/m 8,9 km/h (2 Bft) S 180 0 min 2,7 C 2,2 C 9,8 km/h (2 Bft)
01.03.2020 03:35 6,5 C 7,1 C 5,6 C 5,8 C 4,5 C 0,0 C 77 % 80 % 1002,9 hPa 0,0 l/m 7,6 km/h (2 Bft) N-NW 337 0 min 2,8 C 2,7 C 8,2 km/h (2 Bft)
01.03.2020 03:40 6,4 C 7,1 C 5,5 C 5,8 C 4,6 C 0,0 C 77 % 80 % 1002,3 hPa 0,0 l/m 6,9 km/h (2 Bft) S-SW 202 0 min 2,7 C 3,0 C 12,1 km/h (2 Bft)
01.03.2020 03:45 6,4 C 7,1 C 5,5 C 5,8 C 4,7 C 0,0 C 77 % 80 % 1002,3 hPa 0,0 l/m 6,6 km/h (2 Bft) SO 135 0 min 2,7 C 3,2 C 3,2 km/h (1 Bft)
01.03.2020 03:50 6,4 C 7,1 C 5,4 C 5,7 C 4,4 C 0,0 C 77 % 81 % 1002,3 hPa 0,0 l/m 6,9 km/h (2 Bft) S 180 0 min 2,7 C 2,7 C 14,5 km/h (3 Bft)
01.03.2020 03:55 6,4 C 7,1 C 5,4 C 5,9 C 4,3 C 0,0 C 77 % 81 % 1002,3 hPa 0,0 l/m 7,9 km/h (2 Bft) SO 135 0 min 2,7 C 2,3 C 18,8 km/h (3 Bft)
01.03.2020 04:00 6,4 C 7,1 C 5,4 C 5,9 C 4,2 C 0,0 C 77 % 81 % 1001,9 hPa 0,0 l/m 8,5 km/h (2 Bft) SO 135 0 min 2,7 C 2,1 C 13,0 km/h (3 Bft)
01.03.2020 04:05 6,4 C 7,1 C 5,4 C 5,8 C 4,7 C 0,0 C 78 % 81 % 1001,9 hPa 0,0 l/m 6,6 km/h (2 Bft) S-SO 157 0 min 2,8 C 3,2 C 6,8 km/h (2 Bft)
01.03.2020 04:10 6,3 C 7,1 C 5,5 C 5,8 C 4,8 C 0,0 C 78 % 81 % 1001,9 hPa 0,0 l/m 6,3 km/h (2 Bft) O 90 0 min 2,8 C 3,4 C 6,1 km/h (2 Bft)
01.03.2020 04:15 6,3 C 7,1 C 5,5 C 5,9 C 5,1 C 0,0 C 78 % 81 % 1001,9 hPa 0,0 l/m 5,5 km/h (1 Bft) N-NO 22 0 min 2,8 C 4,0 C 11,7 km/h (2 Bft)
01.03.2020 04:20 6,3 C 7,1 C 5,4 C 5,9 C 5,0 C 0,0 C 78 % 81 % 1002,2 hPa 0,0 l/m 5,6 km/h (1 Bft) S-SW 202 0 min 2,8 C 3,9 C 2,4 km/h (1 Bft)
01.03.2020 04:25 6,3 C 7,0 C 5,3 C 5,7 C 4,6 C 0,0 C 78 % 81 % 1002,2 hPa 0,0 l/m 6,0 km/h (2 Bft) S-SO 157 0 min 2,8 C 3,3 C 10,0 km/h (2 Bft)
01.03.2020 04:30 6,3 C 7,0 C 5,3 C 5,8 C 4,8 C 0,0 C 78 % 81 % 1002,2 hPa 0,0 l/m 5,5 km/h (1 Bft) SO 135 0 min 2,8 C 3,7 C 4,2 km/h (1 Bft)
01.03.2020 04:35 6,3 C 7,0 C 5,3 C 5,8 C 4,8 C 0,0 C 78 % 81 % 1002,2 hPa 0,0 l/m 5,5 km/h (1 Bft) S 180 0 min 2,8 C 3,7 C 5,3 km/h (1 Bft)
01.03.2020 04:40 6,4 C 7,0 C 5,3 C 5,9 C 4,9 C 0,0 C 79 % 81 % 1002,4 hPa 0,0 l/m 5,0 km/h (1 Bft) N-NO 22 0 min 3,0 C 4,0 C 4,5 km/h (1 Bft)
01.03.2020 04:45 6,4 C 7,0 C 5,4 C 5,9 C 4,9 C 0,0 C 79 % 81 % 1002,4 hPa 0,0 l/m 5,0 km/h (1 Bft) S 180 0 min 3,0 C 4,0 C 6,9 km/h (2 Bft)
01.03.2020 04:50 6,4 C 7,0 C 5,5 C 5,9 C 4,9 C 0,0 C 79 % 81 % 1002,4 hPa 0,0 l/m 5,5 km/h (1 Bft) SW 225 0 min 3,0 C 3,8 C 16,3 km/h (3 Bft)
01.03.2020 04:55 6,5 C 7,0 C 5,5 C 5,9 C 4,8 C 0,0 C 79 % 81 % 1002,4 hPa 0,0 l/m 6,1 km/h (2 Bft) SO 135 0 min 3,1 C 3,5 C 12,4 km/h (3 Bft)
01.03.2020 05:00 6,7 C 7,0 C 5,5 C 6,1 C 4,9 C 0,0 C 79 % 81 % 1002,2 hPa 0,0 l/m 6,3 km/h (2 Bft) SO 135 0 min 3,3 C 3,5 C 5,0 km/h (1 Bft)
01.03.2020 05:05 6,6 C 7,0 C 5,6 C 6,2 C 5,3 C 0,0 C 78 % 81 % 1002,2 hPa 0,0 l/m 5,1 km/h (1 Bft) SO 135 0 min 3,0 C 4,4 C 7,7 km/h (2 Bft)
01.03.2020 05:10 6,6 C 7,0 C 5,7 C 6,3 C 5,7 C 0,0 C 78 % 81 % 1002,2 hPa 0,0 l/m 4,5 km/h (1 Bft) SW 225 0 min 3,0 C 5,7 C 8,4 km/h (2 Bft)
01.03.2020 05:15 6,8 C 7,0 C 5,8 C 6,4 C 5,5 C 0,0 C 78 % 80 % 1002,2 hPa 0,0 l/m 5,0 km/h (1 Bft) O-NO 67 0 min 3,2 C 4,7 C 4,0 km/h (1 Bft)
01.03.2020 05:20 6,7 C 7,0 C 5,9 C 6,2 C 5,3 C 0,0 C 78 % 80 % 1002,5 hPa 0,0 l/m 5,6 km/h (1 Bft) S-SW 202 0 min 3,1 C 4,2 C 11,1 km/h (2 Bft)
01.03.2020 05:25 6,9 C 7,0 C 5,9 C 6,4 C 5,4 C 0,0 C 77 % 80 % 1002,5 hPa 0,0 l/m 5,6 km/h (1 Bft) S-SO 157 0 min 3,2 C 4,3 C 12,4 km/h (3 Bft)
01.03.2020 05:30 6,8 C 7,0 C 5,9 C 6,4 C 5,5 C 0,0 C 77 % 80 % 1002,5 hPa 0,0 l/m 5,5 km/h (1 Bft) S-SW 202 0 min 3,1 C 4,5 C 5,0 km/h (1 Bft)
01.03.2020 05:35 6,9 C 7,0 C 5,9 C 6,4 C 5,4 C 0,0 C 77 % 80 % 1002,5 hPa 0,0 l/m 6,0 km/h (2 Bft) S 180 0 min 3,2 C 4,2 C 9,7 km/h (2 Bft)
01.03.2020 05:40 6,9 C 7,0 C 5,9 C 6,4 C 5,4 C 0,0 C 77 % 80 % 1002,4 hPa 0,0 l/m 6,4 km/h (2 Bft) S 180 0 min 3,2 C 4,1 C 8,0 km/h (2 Bft)
01.03.2020 05:45 7,0 C 7,0 C 5,9 C 6,6 C 5,1 C 0,0 C 76 % 79 % 1002,4 hPa 0,0 l/m 7,7 km/h (2 Bft) SO 135 0 min 3,1 C 3,3 C 11,3 km/h (2 Bft)
01.03.2020 05:50 7,0 C 7,0 C 6,0 C 6,4 C 5,2 C 0,0 C 76 % 79 % 1002,4 hPa 0,0 l/m 7,6 km/h (2 Bft) SO 135 0 min 3,1 C 3,5 C 7,6 km/h (2 Bft)
01.03.2020 05:55 7,1 C 7,0 C 6,0 C 6,5 C 5,4 C 0,0 C 76 % 79 % 1002,4 hPa 0,0 l/m 7,1 km/h (2 Bft) SO 135 0 min 3,2 C 3,8 C 16,1 km/h (3 Bft)
01.03.2020 06:00 7,0 C 7,0 C 6,0 C 6,5 C 5,5 C 0,0 C 75 % 79 % 1002,4 hPa 0,0 l/m 6,6 km/h (2 Bft) S 180 0 min 2,9 C 4,1 C 8,0 km/h (2 Bft)
01.03.2020 06:05 7,1 C 7,0 C 6,0 C 6,7 C 5,2 C 0,0 C 75 % 79 % 1002,4 hPa 0,0 l/m 8,0 km/h (2 Bft) S-SO 157 0 min 3,0 C 3,4 C 20,9 km/h (4 Bft)
01.03.2020 06:11 7,0 C 7,0 C 6,1 C 6,6 C 5,0 C 0,0 C 75 % 79 % 1002,4 hPa 0,0 l/m 9,0 km/h (2 Bft) S-SO 157 0 min 2,9 C 2,9 C 8,0 km/h (2 Bft)
01.03.2020 06:15 7,0 C 7,0 C 6,0 C 6,6 C 5,2 C 0,0 C 75 % 79 % 1002,4 hPa 0,0 l/m 8,2 km/h (2 Bft) S-SO 157 0 min 2,9 C 3,3 C 10,6 km/h (2 Bft)
01.03.2020 06:20 7,1 C 7,0 C 6,0 C 6,5 C 5,4 C 0,0 C 75 % 79 % 1002,3 hPa 0,0 l/m 7,1 km/h (2 Bft) SO 135 0 min 3,0 C 3,8 C 8,7 km/h (2 Bft)
01.03.2020 06:25 7,1 C 7,0 C 6,1 C 6,7 C 5,3 C 0,0 C 75 % 78 % 1002,3 hPa 0,0 l/m 7,7 km/h (2 Bft) O-SO 112 0 min 3,0 C 3,6 C 5,8 km/h (2 Bft)
01.03.2020 06:30 7,1 C 7,0 C 6,1 C 6,5 C 5,3 C 0,0 C 75 % 78 % 1002,3 hPa 0,0 l/m 7,6 km/h (2 Bft) W-SW 247 0 min 3,0 C 3,6 C 6,1 km/h (2 Bft)
01.03.2020 06:35 7,1 C 7,0 C 6,1 C 6,5 C 5,4 C 0,0 C 75 % 78 % 1002,3 hPa 0,0 l/m 7,1 km/h (2 Bft) O-NO 67 0 min 3,0 C 3,8 C 6,1 km/h (2 Bft)
01.03.2020 06:40 7,1 C 6,9 C 6,2 C 6,6 C 5,5 C 0,0 C 75 % 78 % 1002,4 hPa 0,0 l/m 7,2 km/h (2 Bft) S-SO 157 0 min 3,0 C 3,9 C 7,6 km/h (2 Bft)
01.03.2020 06:45 7,1 C 6,9 C 6,3 C 6,8 C 6,2 C 0,0 C 75 % 78 % 1002,4 hPa 0,0 l/m 5,5 km/h (1 Bft) NW 315 0 min 3,0 C 5,3 C 6,8 km/h (2 Bft)
01.03.2020 06:50 7,1 C 6,9 C 6,3 C 6,8 C 6,3 C 0,0 C 75 % 77 % 1002,4 hPa 0,0 l/m 5,0 km/h (1 Bft) S 180 0 min 3,0 C 5,6 C 10,6 km/h (2 Bft)
01.03.2020 06:55 7,1 C 6,9 C 6,3 C 6,8 C 6,2 C 0,0 C 74 % 77 % 1002,4 hPa 0,0 l/m 5,5 km/h (1 Bft) NO 45 0 min 2,8 C 5,3 C 3,7 km/h (1 Bft)
01.03.2020 07:00 7,1 C 6,9 C 6,4 C 6,8 C 6,2 C 0,0 C 74 % 77 % 1002,5 hPa 0,0 l/m 5,5 km/h (1 Bft) S-SW 202 0 min 2,8 C 5,3 C 6,9 km/h (2 Bft)
01.03.2020 07:05 7,1 C 6,9 C 6,3 C 6,8 C 6,2 C 0,0 C 74 % 77 % 1002,5 hPa 0,0 l/m 5,0 km/h (1 Bft) O-NO 67 0 min 2,8 C 5,4 C 3,7 km/h (1 Bft)
01.03.2020 07:10 7,1 C 6,9 C 6,3 C 6,8 C 6,1 C 0,0 C 74 % 77 % 1002,5 hPa 0,0 l/m 5,0 km/h (1 Bft) S-SO 157 0 min 2,8 C 5,3 C 5,0 km/h (1 Bft)
01.03.2020 07:15 7,1 C 6,9 C 6,2 C 6,7 C 5,8 C 0,0 C 74 % 77 % 1002,5 hPa 0,0 l/m 5,8 km/h (2 Bft) O-SO 112 0 min 2,8 C 4,7 C 10,1 km/h (2 Bft)
01.03.2020 07:20 7,1 C 6,9 C 6,2 C 6,6 C 5,6 C 0,0 C 74 % 77 % 1002,6 hPa 0,0 l/m 6,3 km/h (2 Bft) W-SW 247 0 min 2,8 C 4,3 C 6,3 km/h (2 Bft)
01.03.2020 07:25 7,0 C 6,9 C 6,1 C 6,5 C 5,4 C 0,0 C 74 % 76 % 1002,6 hPa 0,0 l/m 6,6 km/h (2 Bft) SO 135 0 min 2,7 C 4,0 C 4,8 km/h (1 Bft)
01.03.2020 07:30 6,9 C 6,9 C 6,1 C 6,5 C 5,6 C 0,0 C 74 % 77 % 1002,6 hPa 0,0 l/m 6,0 km/h (2 Bft) S 180 0 min 2,6 C 4,4 C 6,4 km/h (2 Bft)
01.03.2020 07:35 6,8 C 6,9 C 6,1 C 6,6 C 6,2 C 0,0 C 74 % 77 % 1002,6 hPa 0,0 l/m 4,7 km/h (1 Bft) SW 225 0 min 2,5 C 5,6 C 6,6 km/h (2 Bft)
01.03.2020 07:40 6,9 C 6,9 C 6,2 C 6,7 C 6,4 C 0,0 C 74 % 78 % 1002,9 hPa 0,0 l/m 4,0 km/h (1 Bft) W-NW 292 0 min 2,6 C 6,4 C 2,7 km/h (1 Bft)
01.03.2020 07:45 6,8 C 6,9 C 6,2 C 7,1 C 7,1 C 0,3 C 75 % 78 % 1002,9 hPa 0,0 l/m 3,1 km/h (1 Bft) S-SO 157 0 min 2,7 C 7,1 C 5,1 km/h (1 Bft)
01.03.2020 07:50 6,8 C 6,9 C 6,2 C 7,5 C 7,5 C 0,7 C 75 % 78 % 1002,9 hPa 0,0 l/m 3,5 km/h (1 Bft) S-SO 157 0 min 2,7 C 7,5 C 7,6 km/h (2 Bft)
01.03.2020 07:55 6,9 C 6,9 C 6,3 C 6,9 C 6,9 C 0,0 C 75 % 77 % 1002,9 hPa 0,0 l/m 5,0 km/h (1 Bft) S-SO 157 0 min 2,8 C 6,2 C 12,6 km/h (3 Bft)
01.03.2020 08:00 6,8 C 6,9 C 6,4 C 6,8 C 6,7 C 0,0 C 75 % 77 % 1002,7 hPa 0,0 l/m 5,3 km/h (1 Bft) S-SW 202 0 min 2,7 C 5,9 C 6,8 km/h (2 Bft)
01.03.2020 08:05 6,9 C 6,9 C 6,5 C 6,8 C 6,7 C 0,0 C 75 % 77 % 1002,7 hPa 0,0 l/m 5,0 km/h (1 Bft) NW 315 0 min 2,8 C 6,0 C 5,0 km/h (1 Bft)
01.03.2020 08:10 7,1 C 6,9 C 6,5 C 7,0 C 6,7 C 0,0 C 75 % 77 % 1002,7 hPa 0,0 l/m 5,0 km/h (1 Bft) SW 225 0 min 3,0 C 6,0 C 6,8 km/h (2 Bft)
01.03.2020 08:15 7,1 C 6,9 C 6,5 C 7,0 C 6,8 C 0,0 C 75 % 76 % 1002,7 hPa 0,0 l/m 4,7 km/h (1 Bft) SO 135 0 min 3,0 C 6,2 C 8,7 km/h (2 Bft)
01.03.2020 08:20 7,1 C 6,9 C 6,6 C 7,0 C 6,8 C 0,0 C 74 % 76 % 1002,9 hPa 0,0 l/m 4,8 km/h (1 Bft) SO 135 0 min 2,8 C 6,2 C 7,6 km/h (2 Bft)
01.03.2020 08:25 7,1 C 6,9 C 6,7 C 7,0 C 6,7 C 0,0 C 74 % 76 % 1002,9 hPa 0,0 l/m 5,6 km/h (1 Bft) S-SO 157 0 min 2,8 C 5,8 C 7,6 km/h (2 Bft)
01.03.2020 08:30 7,2 C 6,9 C 6,7 C 7,1 C 6,9 C 0,0 C 74 % 76 % 1002,9 hPa 0,0 l/m 4,8 km/h (1 Bft) W-NW 292 0 min 2,9 C 6,3 C 6,0 km/h (2 Bft)
01.03.2020 08:35 7,2 C 6,9 C 6,7 C 7,0 C 6,7 C 0,0 C 74 % 76 % 1002,9 hPa 0,0 l/m 6,0 km/h (2 Bft) SO 135 0 min 2,9 C 5,7 C 24,6 km/h (4 Bft)
01.03.2020 08:40 7,2 C 6,9 C 6,7 C 7,1 C 6,2 C 0,0 C 73 % 75 % 1002,7 hPa 0,0 l/m 7,7 km/h (2 Bft) O-NO 67 0 min 2,7 C 4,6 C 4,0 km/h (1 Bft)
01.03.2020 08:45 7,1 C 6,9 C 6,5 C 6,9 C 6,0 C 0,0 C 73 % 75 % 1002,7 hPa 0,0 l/m 7,7 km/h (2 Bft) W 270 0 min 2,6 C 4,4 C 4,3 km/h (1 Bft)
01.03.2020 08:50 7,0 C 6,9 C 6,4 C 6,8 C 6,5 C 0,0 C 73 % 76 % 1002,7 hPa 0,0 l/m 5,3 km/h (1 Bft) S-SO 157 0 min 2,5 C 5,7 C 6,4 km/h (2 Bft)
01.03.2020 08:55 7,1 C 6,9 C 6,5 C 6,9 C 6,4 C 0,0 C 74 % 76 % 1002,7 hPa 0,0 l/m 5,6 km/h (1 Bft) O-SO 112 0 min 2,8 C 5,5 C 8,0 km/h (2 Bft)
01.03.2020 09:00 7,1 C 6,9 C 6,7 C 6,9 C 6,0 C 0,0 C 74 % 76 % 1002,8 hPa 0,0 l/m 8,2 km/h (2 Bft) S-SO 157 0 min 2,8 C 4,3 C 12,2 km/h (2 Bft)
01.03.2020 09:05 7,1 C 6,9 C 7,1 C 6,8 C 6,2 C 0,0 C 74 % 75 % 1002,8 hPa 0,0 l/m 7,6 km/h (2 Bft) SO 135 0 min 2,8 C 4,6 C 12,6 km/h (3 Bft)
01.03.2020 09:10 7,3 C 6,9 C 7,2 C 7,1 C 6,7 C 0,0 C 74 % 75 % 1002,8 hPa 0,0 l/m 5,8 km/h (2 Bft) SW 225 0 min 3,0 C 5,7 C 10,0 km/h (2 Bft)
01.03.2020 09:15 7,3 C 6,9 C 7,2 C 7,3 C 7,2 C 0,0 C 74 % 75 % 1002,8 hPa 0,0 l/m 5,0 km/h (1 Bft) O-SO 112 0 min 3,0 C 6,6 C 8,0 km/h (2 Bft)
01.03.2020 09:20 7,3 C 6,9 C 7,1 C 7,3 C 7,3 C 0,0 C 74 % 75 % 1002,8 hPa 0,0 l/m 5,1 km/h (1 Bft) O 90 0 min 3,0 C 6,7 C 9,8 km/h (2 Bft)
01.03.2020 09:25 7,4 C 6,9 C 7,4 C 7,6 C 7,6 C 0,2 C 75 % 76 % 1002,8 hPa 0,0 l/m 5,3 km/h (1 Bft) SO 135 0 min 3,3 C 6,9 C 7,7 km/h (2 Bft)
01.03.2020 09:30 7,5 C 6,9 C 7,6 C 8,2 C 8,2 C 0,7 C 75 % 76 % 1002,8 hPa 0,0 l/m 5,1 km/h (1 Bft) SW 225 0 min 3,4 C 7,7 C 6,4 km/h (2 Bft)
01.03.2020 09:35 7,6 C 6,9 C 7,6 C 7,9 C 7,9 C 0,3 C 75 % 75 % 1002,8 hPa 0,0 l/m 5,6 km/h (1 Bft) S 180 0 min 3,5 C 7,2 C 7,7 km/h (2 Bft)
01.03.2020 09:40 7,6 C 6,9 C 7,5 C 7,5 C 7,2 C 0,0 C 75 % 76 % 1002,8 hPa 0,0 l/m 6,1 km/h (2 Bft) S 180 0 min 3,5 C 6,2 C 5,0 km/h (1 Bft)
01.03.2020 09:45 7,7 C 6,9 C 7,7 C 7,9 C 7,9 C 0,2 C 75 % 76 % 1002,8 hPa 0,0 l/m 5,5 km/h (1 Bft) S-SO 157 0 min 3,6 C 7,2 C 9,0 km/h (2 Bft)
01.03.2020 09:50 7,6 C 6,9 C 7,9 C 8,6 C 8,6 C 1,0 C 75 % 75 % 1002,8 hPa 0,0 l/m 5,5 km/h (1 Bft) N-NW 337 0 min 3,5 C 8,0 C 5,0 km/h (1 Bft)
01.03.2020 09:55 7,9 C 6,9 C 8,2 C 9,0 C 9,0 C 1,1 C 75 % 75 % 1002,8 hPa 0,0 l/m 5,6 km/h (1 Bft) W-NW 292 0 min 3,7 C 8,4 C 6,8 km/h (2 Bft)
01.03.2020 10:00 8,1 C 6,9 C 8,3 C 9,9 C 9,9 C 1,8 C 75 % 75 % 1002,4 hPa 0,0 l/m 5,1 km/h (1 Bft) S 180 0 min 3,9 C 9,6 C 9,0 km/h (2 Bft)
01.03.2020 10:05 8,3 C 6,9 C 8,4 C 10,7 C 10,7 C 2,4 C 74 % 74 % 1002,4 hPa 0,0 l/m 6,1 km/h (2 Bft) SO 135 0 min 3,9 C 10,7 C 8,7 km/h (2 Bft)
01.03.2020 10:10 8,4 C 6,9 C 8,7 C 11,2 C 11,2 C 2,8 C 74 % 74 % 1002,4 hPa 0,0 l/m 7,1 km/h (2 Bft) O-SO 112 0 min 4,0 C 11,2 C 8,4 km/h (2 Bft)
01.03.2020 10:15 8,6 C 6,9 C 8,8 C 10,9 C 10,9 C 2,3 C 73 % 73 % 1002,4 hPa 0,0 l/m 7,6 km/h (2 Bft) S-SO 157 0 min 4,0 C 10,9 C 15,8 km/h (3 Bft)
01.03.2020 10:20 8,7 C 6,9 C 8,8 C 11,3 C 11,3 C 2,6 C 73 % 73 % 1002,1 hPa 0,0 l/m 7,1 km/h (2 Bft) S 180 0 min 4,1 C 11,3 C 8,2 km/h (2 Bft)
01.03.2020 10:25 9,1 C 6,8 C 9,1 C 10,8 C 10,8 C 1,7 C 73 % 73 % 1002,1 hPa 0,0 l/m 7,1 km/h (2 Bft) SO 135 0 min 4,5 C 10,8 C 12,4 km/h (3 Bft)
01.03.2020 10:30 9,1 C 6,8 C 9,4 C 10,8 C 10,8 C 1,7 C 72 % 71 % 1002,1 hPa 0,0 l/m 7,1 km/h (2 Bft) W-SW 247 0 min 4,3 C 10,8 C 8,5 km/h (2 Bft)
01.03.2020 10:35 9,2 C 6,8 C 9,5 C 11,0 C 11,0 C 1,8 C 71 % 69 % 1002,1 hPa 0,0 l/m 6,8 km/h (2 Bft) SO 135 0 min 4,2 C 11,0 C 6,0 km/h (2 Bft)
01.03.2020 10:40 9,2 C 6,8 C 9,5 C 11,0 C 11,0 C 1,8 C 70 % 68 % 1002,0 hPa 0,0 l/m 6,1 km/h (2 Bft) N-NO 22 0 min 4,0 C 11,0 C 6,4 km/h (2 Bft)
01.03.2020 10:45 9,2 C 6,8 C 9,6 C 10,7 C 10,7 C 1,5 C 69 % 68 % 1002,0 hPa 0,0 l/m 6,8 km/h (2 Bft) S 180 0 min 3,8 C 10,7 C 15,0 km/h (3 Bft)
01.03.2020 10:50 9,2 C 6,9 C 9,5 C 10,7 C 10,3 C 1,5 C 68 % 67 % 1002,0 hPa 0,0 l/m 8,2 km/h (2 Bft) SO 135 0 min 3,6 C 10,3 C 13,2 km/h (3 Bft)
01.03.2020 10:55 9,3 C 6,9 C 9,6 C 10,4 C 9,9 C 1,1 C 68 % 67 % 1002,0 hPa 0,0 l/m 8,9 km/h (2 Bft) SO 135 0 min 3,7 C 8,7 C 12,6 km/h (3 Bft)
01.03.2020 11:00 9,3 C 6,9 C 9,8 C 10,4 C 10,2 C 1,1 C 68 % 66 % 1002,0 hPa 0,0 l/m 9,2 km/h (2 Bft) W 270 0 min 3,7 C 10,2 C 7,7 km/h (2 Bft)
01.03.2020 11:05 9,5 C 6,9 C 9,8 C 10,2 C 10,2 C 0,7 C 66 % 65 % 1002,0 hPa 0,0 l/m 10,6 km/h (2 Bft) SO 135 0 min 3,5 C 10,2 C 6,4 km/h (2 Bft)
01.03.2020 11:10 9,4 C 6,9 C 9,8 C 10,5 C 10,1 C 1,1 C 66 % 65 % 1002,0 hPa 0,0 l/m 10,1 km/h (2 Bft) S 180 0 min 3,4 C 10,1 C 18,0 km/h (3 Bft)
01.03.2020 11:15 9,5 C 6,9 C 9,5 C 10,1 C 10,1 C 0,6 C 66 % 64 % 1002,0 hPa 0,0 l/m 7,7 km/h (2 Bft) S 180 0 min 3,5 C 10,1 C 6,4 km/h (2 Bft)
01.03.2020 11:20 9,3 C 6,9 C 9,4 C 10,2 C 9,8 C 0,9 C 65 % 64 % 1002,3 hPa 0,0 l/m 7,7 km/h (2 Bft) O-NO 67 0 min 3,1 C 8,8 C 6,9 km/h (2 Bft)
01.03.2020 11:25 9,3 C 6,9 C 9,3 C 9,6 C 9,6 C 0,3 C 65 % 65 % 1002,3 hPa 0,0 l/m 7,6 km/h (2 Bft) W 270 0 min 3,1 C 8,6 C 24,9 km/h (4 Bft)
01.03.2020 11:30 9,3 C 6,9 C 9,3 C 9,8 C 9,4 C 0,5 C 65 % 64 % 1002,3 hPa 0,0 l/m 8,0 km/h (2 Bft) S-SW 202 0 min 3,1 C 8,3 C 9,0 km/h (2 Bft)
01.03.2020 11:35 9,3 C 6,9 C 9,4 C 9,6 C 9,6 C 0,3 C 65 % 66 % 1002,3 hPa 0,0 l/m 7,6 km/h (2 Bft) S-SO 157 0 min 3,1 C 8,6 C 10,3 km/h (2 Bft)
01.03.2020 11:40 9,4 C 6,9 C 9,5 C 10,1 C 10,1 C 0,7 C 66 % 65 % 1001,8 hPa 0,0 l/m 6,1 km/h (2 Bft) S 180 0 min 3,4 C 10,1 C 7,7 km/h (2 Bft)
01.03.2020 11:45 9,4 C 6,9 C 9,7 C 10,4 C 10,4 C 1,0 C 66 % 65 % 1001,8 hPa 0,0 l/m 6,6 km/h (2 Bft) O 90 0 min 3,4 C 10,4 C 6,0 km/h (2 Bft)
01.03.2020 11:50 9,5 C 6,9 C 9,7 C 10,3 C 10,3 C 0,8 C 66 % 65 % 1001,8 hPa 0,0 l/m 6,6 km/h (2 Bft) W-SW 247 0 min 3,5 C 10,3 C 4,0 km/h (1 Bft)
01.03.2020 11:55 9,5 C 6,9 C 9,8 C 10,7 C 10,7 C 1,2 C 66 % 65 % 1001,8 hPa 0,0 l/m 6,3 km/h (2 Bft) W-SW 247 0 min 3,5 C 10,7 C 4,7 km/h (1 Bft)
01.03.2020 12:00 9,6 C 6,9 C 10,0 C 11,0 C 11,0 C 1,4 C 66 % 65 % 1001,8 hPa 0,0 l/m 5,8 km/h (2 Bft) NW 315 0 min 3,6 C 11,0 C 7,9 km/h (2 Bft)
01.03.2020 12:05 9,7 C 6,9 C 10,2 C 11,4 C 11,4 C 1,7 C 66 % 66 % 1001,8 hPa 0,0 l/m 6,1 km/h (2 Bft) S-SW 202 0 min 3,7 C 11,4 C 12,4 km/h (3 Bft)
01.03.2020 12:10 9,8 C 6,9 C 10,3 C 11,3 C 11,3 C 1,5 C 66 % 65 % 1001,8 hPa 0,0 l/m 7,4 km/h (2 Bft) S 180 0 min 3,8 C 11,3 C 7,6 km/h (2 Bft)
01.03.2020 12:15 10,0 C 7,0 C 10,5 C 11,7 C 11,7 C 1,7 C 65 % 63 % 1001,8 hPa 0,0 l/m 7,2 km/h (2 Bft) W-SW 247 0 min 3,7 C 11,7 C 12,1 km/h (2 Bft)
01.03.2020 12:20 10,0 C 7,0 C 10,5 C 11,6 C 11,6 C 1,6 C 65 % 63 % 1001,6 hPa 0,0 l/m 7,6 km/h (2 Bft) S 180 0 min 3,7 C 11,6 C 10,9 km/h (2 Bft)
01.03.2020 12:25 10,0 C 7,0 C 10,5 C 11,4 C 11,4 C 1,4 C 65 % 63 % 1001,6 hPa 0,0 l/m 7,4 km/h (2 Bft) SO 135 0 min 3,7 C 11,4 C 14,0 km/h (3 Bft)
01.03.2020 12:30 10,0 C 7,0 C 10,4 C 11,3 C 11,3 C 1,3 C 64 % 63 % 1001,6 hPa 0,0 l/m 7,4 km/h (2 Bft) W 270 0 min 3,5 C 11,3 C 6,8 km/h (2 Bft)
01.03.2020 12:35 10,0 C 7,0 C 10,5 C 11,3 C 11,3 C 1,3 C 64 % 62 % 1001,6 hPa 0,0 l/m 7,9 km/h (2 Bft) S-SW 202 0 min 3,5 C 11,3 C 13,7 km/h (3 Bft)
01.03.2020 12:40 10,3 C 7,0 C 10,7 C 12,1 C 12,1 C 1,8 C 64 % 62 % 1001,2 hPa 0,0 l/m 6,1 km/h (2 Bft) SW 225 0 min 3,8 C 12,1 C 7,4 km/h (2 Bft)
01.03.2020 12:45 10,3 C 7,0 C 10,8 C 12,5 C 12,5 C 2,2 C 64 % 61 % 1001,2 hPa 0,0 l/m 6,6 km/h (2 Bft) W 270 0 min 3,8 C 12,5 C 11,7 km/h (2 Bft)
01.03.2020 12:50 10,4 C 7,0 C 10,9 C 12,6 C 12,4 C 2,2 C 62 % 60 % 1001,2 hPa 0,0 l/m 7,7 km/h (2 Bft) S-SO 157 0 min 3,4 C 12,4 C 15,6 km/h (3 Bft)
01.03.2020 12:55 10,5 C 7,0 C 10,8 C 12,2 C 11,8 C 1,7 C 61 % 59 % 1001,2 hPa 0,0 l/m 8,7 km/h (2 Bft) NW 315 0 min 3,3 C 11,8 C 12,2 km/h (2 Bft)
01.03.2020 13:00 10,4 C 7,0 C 10,6 C 11,6 C 10,9 C 1,2 C 60 % 59 % 1001,2 hPa 0,0 l/m 11,6 km/h (2 Bft) S-SW 202 0 min 3,0 C 10,9 C 21,6 km/h (4 Bft)
01.03.2020 13:05 10,3 C 7,0 C 10,3 C 10,6 C 9,6 C 0,3 C 60 % 60 % 1001,2 hPa 0,0 l/m 14,0 km/h (3 Bft) W-SW 247 0 min 2,9 C 7,5 C 12,6 km/h (3 Bft)
01.03.2020 13:10 10,1 C 7,0 C 10,2 C 10,1 C 9,5 C 0,0 C 61 % 60 % 1001,2 hPa 0,0 l/m 12,9 km/h (3 Bft) W-SW 247 0 min 2,9 C 7,6 C 9,0 km/h (2 Bft)
01.03.2020 13:15 10,1 C 7,0 C 10,2 C 10,1 C 9,8 C 0,0 C 61 % 61 % 1001,2 hPa 0,0 l/m 10,0 km/h (2 Bft) S 180 0 min 2,9 C 8,4 C 22,7 km/h (4 Bft)
01.03.2020 13:20 10,2 C 7,0 C 10,5 C 10,7 C 10,7 C 0,5 C 61 % 61 % 1001,0 hPa 0,0 l/m 8,5 km/h (2 Bft) O-SO 112 0 min 3,0 C 10,7 C 2,4 km/h (1 Bft)
01.03.2020 13:25 10,5 C 7,1 C 10,7 C 11,5 C 11,6 C 1,0 C 62 % 60 % 1001,0 hPa 0,0 l/m 8,4 km/h (2 Bft) O 90 0 min 3,5 C 11,6 C 10,1 km/h (2 Bft)
01.03.2020 13:30 10,4 C 7,1 C 10,7 C 11,8 C 11,8 C 1,4 C 61 % 61 % 1001,0 hPa 0,0 l/m 7,2 km/h (2 Bft) S-SO 157 0 min 3,2 C 11,8 C 8,2 km/h (2 Bft)
01.03.2020 13:35 10,6 C 7,1 C 10,5 C 12,3 C 12,3 C 1,7 C 62 % 61 % 1001,0 hPa 0,0 l/m 6,1 km/h (2 Bft) N-NW 337 0 min 3,6 C 12,3 C 6,6 km/h (2 Bft)
01.03.2020 13:40 10,7 C 7,1 C 10,5 C 12,2 C 12,2 C 1,5 C 61 % 61 % 1000,8 hPa 0,0 l/m 5,8 km/h (2 Bft) O 90 0 min 3,5 C 12,2 C 11,3 km/h (2 Bft)
01.03.2020 13:45 10,7 C 7,1 C 10,7 C 12,9 C 12,9 C 2,2 C 61 % 60 % 1000,8 hPa 0,0 l/m 6,8 km/h (2 Bft) W 270 0 min 3,5 C 12,9 C 6,9 km/h (2 Bft)
01.03.2020 13:50 10,8 C 7,1 C 10,7 C 13,3 C 13,4 C 2,5 C 60 % 60 % 1000,8 hPa 0,0 l/m 8,0 km/h (2 Bft) SW 225 0 min 3,4 C 13,4 C 15,4 km/h (3 Bft)
01.03.2020 13:55 11,1 C 7,1 C 10,8 C 13,8 C 13,8 C 2,7 C 59 % 59 % 1000,8 hPa 0,0 l/m 9,3 km/h (2 Bft) S 180 0 min 3,4 C 13,8 C 34,4 km/h (5 Bft)
01.03.2020 14:00 10,9 C 7,1 C 10,7 C 13,4 C 12,8 C 2,5 C 59 % 59 % 1000,8 hPa 0,0 l/m 10,3 km/h (2 Bft) S 180 0 min 3,2 C 12,8 C 13,4 km/h (3 Bft)
01.03.2020 14:05 10,8 C 7,1 C 10,9 C 12,5 C 11,9 C 1,7 C 59 % 59 % 1000,8 hPa 0,0 l/m 11,7 km/h (2 Bft) SW 225 0 min 3,1 C 11,9 C 22,0 km/h (4 Bft)
01.03.2020 14:10 10,8 C 7,1 C 10,8 C 11,9 C 11,2 C 1,1 C 59 % 59 % 1000,8 hPa 0,0 l/m 12,9 km/h (3 Bft) S-SW 202 0 min 3,1 C 11,2 C 13,0 km/h (3 Bft)
01.03.2020 14:15 11,1 C 7,1 C 11,1 C 12,0 C 11,7 C 0,9 C 58 % 57 % 1000,8 hPa 0,0 l/m 13,7 km/h (3 Bft) S-SO 157 0 min 3,2 C 11,7 C 16,3 km/h (3 Bft)
01.03.2020 14:20 11,1 C 7,2 C 11,1 C 13,0 C 13,3 C 1,9 C 57 % 56 % 1000,4 hPa 0,0 l/m 11,9 km/h (2 Bft) NW 315 0 min 2,9 C 13,3 C 7,9 km/h (2 Bft)
01.03.2020 14:25 11,3 C 7,2 C 11,1 C 14,0 C 14,1 C 2,7 C 56 % 57 % 1000,4 hPa 0,0 l/m 11,6 km/h (2 Bft) S-SO 157 0 min 2,8 C 14,1 C 12,4 km/h (3 Bft)
01.03.2020 14:30 11,1 C 7,2 C 11,0 C 14,0 C 13,5 C 2,9 C 57 % 57 % 1000,4 hPa 0,0 l/m 11,9 km/h (2 Bft) O-NO 67 0 min 2,9 C 13,5 C 17,7 km/h (3 Bft)
01.03.2020 14:35 11,1 C 7,2 C 10,9 C 13,7 C 13,6 C 2,6 C 58 % 59 % 1000,4 hPa 0,0 l/m 9,8 km/h (2 Bft) S-SO 157 0 min 3,2 C 13,6 C 13,5 km/h (3 Bft)
01.03.2020 14:40 11,1 C 7,2 C 10,8 C 13,8 C 13,8 C 2,7 C 59 % 61 % 1000,7 hPa 0,0 l/m 8,4 km/h (2 Bft) SO 135 0 min 3,4 C 13,8 C 4,7 km/h (1 Bft)
01.03.2020 14:45 11,2 C 7,2 C 11,0 C 14,4 C 14,6 C 3,2 C 60 % 61 % 1000,7 hPa 0,0 l/m 7,9 km/h (2 Bft) O 90 0 min 3,7 C 14,6 C 7,9 km/h (2 Bft)
01.03.2020 14:50 11,3 C 7,2 C 11,0 C 14,9 C 14,9 C 3,6 C 59 % 59 % 1000,7 hPa 0,0 l/m 7,6 km/h (2 Bft) W 270 5 min 3,6 C 14,9 C 12,9 km/h (3 Bft)
01.03.2020 14:55 11,3 C 7,2 C 10,7 C 14,2 C 13,6 C 2,9 C 57 % 58 % 1000,7 hPa 0,0 l/m 9,5 km/h (2 Bft) S 180 0 min 3,1 C 13,6 C 20,0 km/h (4 Bft)
01.03.2020 15:00 11,1 C 7,2 C 10,7 C 13,0 C 12,3 C 1,9 C 57 % 59 % 1000,6 hPa 0,0 l/m 10,1 km/h (2 Bft) S-SO 157 0 min 2,9 C 12,3 C 12,4 km/h (3 Bft)
01.03.2020 15:05 11,0 C 7,2 C 10,9 C 12,5 C 12,1 C 1,5 C 58 % 60 % 1000,6 hPa 0,0 l/m 10,9 km/h (2 Bft) S 180 0 min 3,1 C 12,1 C 11,7 km/h (2 Bft)
01.03.2020 15:10 11,3 C 7,2 C 11,1 C 12,6 C 12,3 C 1,3 C 57 % 58 % 1000,6 hPa 0,0 l/m 12,4 km/h (3 Bft) SW 225 0 min 3,1 C 12,3 C 21,4 km/h (4 Bft)
01.03.2020 15:15 11,5 C 7,2 C 11,5 C 13,8 C 14,3 C 2,3 C 56 % 55 % 1000,6 hPa 0,0 l/m 11,6 km/h (2 Bft) W 270 0 min 3,0 C 14,3 C 5,1 km/h (1 Bft)
01.03.2020 15:20 11,7 C 7,3 C 11,5 C 15,0 C 15,1 C 3,3 C 56 % 57 % 1000,9 hPa 0,0 l/m 11,1 km/h (2 Bft) SW 225 5 min 3,2 C 15,1 C 21,6 km/h (4 Bft)
01.03.2020 15:25 11,6 C 7,3 C 11,5 C 14,8 C 14,3 C 3,2 C 54 % 55 % 1000,9 hPa 0,0 l/m 13,5 km/h (3 Bft) SW 225 0 min 2,6 C 14,3 C 11,4 km/h (2 Bft)
01.03.2020 15:30 11,5 C 7,3 C 11,1 C 14,2 C 13,7 C 2,7 C 56 % 56 % 1000,9 hPa 0,0 l/m 13,8 km/h (3 Bft) SW 225 0 min 3,0 C 13,7 C 17,7 km/h (3 Bft)
01.03.2020 15:35 11,1 C 7,3 C 10,5 C 12,7 C 11,8 C 1,6 C 56 % 57 % 1000,9 hPa 0,0 l/m 9,0 km/h (2 Bft) S 180 0 min 2,7 C 11,8 C 4,5 km/h (1 Bft)
01.03.2020 15:40 10,9 C 7,3 C 10,3 C 11,1 C 11,1 C 0,2 C 56 % 58 % 1001,2 hPa 0,0 l/m 7,4 km/h (2 Bft) SW 225 0 min 2,5 C 11,1 C 6,8 km/h (2 Bft)
01.03.2020 15:45 10,7 C 7,3 C 10,0 C 11,0 C 11,0 C 0,3 C 57 % 60 % 1001,2 hPa 0,0 l/m 5,0 km/h (1 Bft) NW 315 0 min 2,5 C 11,0 C 5,5 km/h (1 Bft)
01.03.2020 15:50 10,7 C 7,3 C 9,9 C 10,7 C 10,6 C 0,0 C 58 % 61 % 1001,2 hPa 0,0 l/m 5,5 km/h (1 Bft) SO 135 0 min 2,8 C 10,6 C 10,5 km/h (2 Bft)
01.03.2020 15:55 10,4 C 7,4 C 9,7 C 10,3 C 10,1 C 0,0 C 59 % 62 % 1001,2 hPa 0,0 l/m 6,1 km/h (2 Bft) SW 225 0 min 2,7 C 10,1 C 10,9 km/h (2 Bft)
01.03.2020 16:00 10,3 C 7,4 C 9,6 C 10,1 C 9,7 C 0,0 C 60 % 62 % 1001,1 hPa 0,0 l/m 6,8 km/h (2 Bft) SW 225 0 min 2,9 C 8,9 C 9,7 km/h (2 Bft)
01.03.2020 16:05 10,3 C 7,4 C 9,6 C 10,1 C 9,7 C 0,0 C 60 % 63 % 1001,1 hPa 0,0 l/m 6,3 km/h (2 Bft) SO 135 0 min 2,9 C 9,0 C 12,9 km/h (3 Bft)
01.03.2020 16:10 10,4 C 7,4 C 9,9 C 10,8 C 10,8 C 0,4 C 61 % 63 % 1001,1 hPa 0,0 l/m 6,3 km/h (2 Bft) S-SO 157 0 min 3,2 C 10,8 C 16,7 km/h (3 Bft)
01.03.2020 16:15 10,7 C 7,4 C 10,1 C 11,4 C 11,3 C 0,7 C 60 % 61 % 1001,1 hPa 0,0 l/m 8,0 km/h (2 Bft) S-SO 157 0 min 3,3 C 11,3 C 11,9 km/h (2 Bft)
01.03.2020 16:20 10,7 C 7,4 C 10,2 C 11,9 C 11,8 C 1,2 C 59 % 60 % 1001,1 hPa 0,0 l/m 9,3 km/h (2 Bft) S 180 0 min 3,0 C 11,8 C 11,4 km/h (2 Bft)
01.03.2020 16:25 10,7 C 7,4 C 9,9 C 12,1 C 11,9 C 1,4 C 58 % 61 % 1001,1 hPa 0,0 l/m 8,2 km/h (2 Bft) W 270 0 min 2,8 C 11,9 C 13,0 km/h (3 Bft)
01.03.2020 16:30 10,6 C 7,4 C 9,8 C 11,5 C 11,0 C 0,9 C 58 % 60 % 1001,1 hPa 0,0 l/m 8,2 km/h (2 Bft) S 180 0 min 2,7 C 11,0 C 6,0 km/h (2 Bft)
01.03.2020 16:35 10,6 C 7,4 C 9,8 C 11,3 C 11,1 C 0,7 C 58 % 60 % 1001,1 hPa 0,0 l/m 8,7 km/h (2 Bft) NW 315 0 min 2,7 C 11,1 C 8,0 km/h (2 Bft)
01.03.2020 16:40 10,6 C 7,4 C 9,9 C 11,4 C 11,3 C 0,8 C 58 % 60 % 1000,8 hPa 0,0 l/m 7,9 km/h (2 Bft) S 180 0 min 2,7 C 11,3 C 13,5 km/h (3 Bft)
01.03.2020 16:45 10,7 C 7,5 C 10,1 C 11,4 C 11,4 C 0,7 C 58 % 60 % 1000,8 hPa 0,0 l/m 7,4 km/h (2 Bft) S-SO 157 0 min 2,8 C 11,4 C 10,0 km/h (2 Bft)
01.03.2020 16:50 10,8 C 7,5 C 10,0 C 11,6 C 11,6 C 0,8 C 58 % 60 % 1000,8 hPa 0,0 l/m 7,2 km/h (2 Bft) S 180 0 min 2,9 C 11,6 C 4,8 km/h (1 Bft)
01.03.2020 16:55 10,7 C 7,5 C 9,9 C 11,8 C 11,8 C 1,1 C 58 % 60 % 1000,8 hPa 0,0 l/m 5,5 km/h (1 Bft) N-NW 337 0 min 2,8 C 11,8 C 2,7 km/h (1 Bft)
01.03.2020 17:00 10,7 C 7,5 C 9,7 C 11,9 C 11,9 C 1,2 C 58 % 60 % 1000,9 hPa 0,0 l/m 4,8 km/h (1 Bft) S 180 5 min 2,8 C 11,9 C 14,2 km/h (3 Bft)
01.03.2020 17:05 10,5 C 7,5 C 9,5 C 11,2 C 11,2 C 0,7 C 58 % 60 % 1000,9 hPa 0,0 l/m 5,5 km/h (1 Bft) S 180 0 min 2,6 C 11,2 C 10,8 km/h (2 Bft)
01.03.2020 17:10 10,3 C 7,5 C 9,5 C 10,3 C 10,3 C 0,0 C 58 % 61 % 1000,9 hPa 0,0 l/m 6,3 km/h (2 Bft) S 180 0 min 2,4 C 10,3 C 7,6 km/h (2 Bft)
01.03.2020 17:15 10,1 C 7,5 C 9,2 C 9,9 C 9,6 C 0,0 C 59 % 62 % 1000,9 hPa 0,0 l/m 6,3 km/h (2 Bft) W 270 0 min 2,5 C 8,9 C 8,5 km/h (2 Bft)
01.03.2020 17:20 10,0 C 7,5 C 9,0 C 9,7 C 9,2 C 0,0 C 59 % 63 % 1001,0 hPa 0,0 l/m 6,6 km/h (2 Bft) SO 135 0 min 2,4 C 8,4 C 8,2 km/h (2 Bft)
01.03.2020 17:25 9,9 C 7,5 C 8,8 C 9,7 C 9,3 C 0,0 C 60 % 64 % 1001,0 hPa 0,0 l/m 5,6 km/h (1 Bft) SO 135 0 min 2,5 C 8,8 C 4,8 km/h (1 Bft)
01.03.2020 17:30 9,8 C 7,5 C 8,6 C 9,8 C 9,7 C 0,0 C 60 % 64 % 1001,0 hPa 0,0 l/m 4,2 km/h (1 Bft) W-SW 247 0 min 2,4 C 9,7 C 2,7 km/h (1 Bft)
01.03.2020 17:35 9,6 C 7,5 C 8,4 C 9,5 C 9,2 C 0,0 C 60 % 65 % 1001,0 hPa 0,0 l/m 3,5 km/h (1 Bft) S-SO 157 0 min 2,2 C 9,2 C 8,5 km/h (2 Bft)
01.03.2020 17:40 9,5 C 7,5 C 8,3 C 9,3 C 8,8 C 0,0 C 61 % 66 % 1000,9 hPa 0,0 l/m 4,2 km/h (1 Bft) S-SO 157 0 min 2,4 C 8,8 C 8,0 km/h (2 Bft)
01.03.2020 17:45 9,5 C 7,5 C 8,2 C 9,0 C 8,1 C 0,0 C 61 % 66 % 1000,9 hPa 0,0 l/m 5,3 km/h (1 Bft) S-SW 202 0 min 2,4 C 7,5 C 8,4 km/h (2 Bft)
01.03.2020 17:50 9,2 C 7,5 C 8,0 C 8,8 C 8,1 C 0,0 C 62 % 66 % 1000,9 hPa 0,0 l/m 4,5 km/h (1 Bft) SO 135 0 min 2,3 C 8,1 C 0,0 km/h (0 Bft)
01.03.2020 17:55 9,1 C 7,5 C 7,9 C 8,7 C 7,9 C 0,0 C 62 % 67 % 1000,9 hPa 0,0 l/m 3,9 km/h (1 Bft) S 180 0 min 2,2 C 7,9 C 6,4 km/h (2 Bft)
01.03.2020 18:00 9,1 C 7,5 C 7,7 C 8,7 C 8,0 C 0,0 C 63 % 68 % 1001,1 hPa 0,0 l/m 3,5 km/h (1 Bft) SW 225 0 min 2,4 C 8,0 C 4,8 km/h (1 Bft)
01.03.2020 18:05 8,9 C 7,5 C 7,6 C 8,5 C 7,7 C 0,0 C 63 % 69 % 1001,1 hPa 0,0 l/m 4,2 km/h (1 Bft) S 180 0 min 2,2 C 7,7 C 7,2 km/h (2 Bft)
01.03.2020 18:10 8,8 C 7,5 C 7,6 C 8,4 C 7,7 C 0,0 C 64 % 69 % 1001,1 hPa 0,0 l/m 4,0 km/h (1 Bft) S-SW 202 0 min 2,4 C 7,7 C 5,6 km/h (1 Bft)
01.03.2020 18:15 8,8 C 7,5 C 7,3 C 8,4 C 7,7 C 0,0 C 64 % 70 % 1001,1 hPa 0,0 l/m 2,9 km/h (1 Bft) S 180 0 min 2,4 C 7,7 C 6,1 km/h (2 Bft)
01.03.2020 18:20 8,6 C 7,5 C 7,2 C 8,2 C 7,5 C 0,0 C 64 % 70 % 1000,9 hPa 0,0 l/m 2,1 km/h (1 Bft) NO 45 0 min 2,2 C 7,5 C 0,0 km/h (0 Bft)
01.03.2020 18:25 8,4 C 7,5 C 6,8 C 7,9 C 7,0 C 0,0 C 65 % 70 % 1000,9 hPa 0,0 l/m 0,8 km/h (0 Bft) S 180 0 min 2,2 C 7,0 C 0,0 km/h (0 Bft)
01.03.2020 18:30 8,3 C 7,5 C 6,7 C 7,8 C 6,8 C 0,0 C 65 % 72 % 1000,9 hPa 0,0 l/m 1,0 km/h (0 Bft) S-SO 157 0 min 2,1 C 6,8 C 7,4 km/h (2 Bft)
01.03.2020 18:35 8,3 C 7,5 C 6,7 C 7,8 C 6,7 C 0,0 C 66 % 72 % 1000,9 hPa 0,0 l/m 1,4 km/h (1 Bft) W-SW 247 0 min 2,3 C 6,7 C 2,4 km/h (1 Bft)
01.03.2020 18:40 8,1 C 7,5 C 6,5 C 7,6 C 6,7 C 0,0 C 66 % 73 % 1000,9 hPa 0,0 l/m 1,1 km/h (1 Bft) N-NO 22 0 min 2,1 C 6,7 C 0,0 km/h (0 Bft)
01.03.2020 18:45 7,9 C 7,5 C 6,1 C 7,4 C 6,4 C 0,0 C 67 % 73 % 1000,9 hPa 0,0 l/m 0,3 km/h (0 Bft) NO 45 0 min 2,2 C 6,4 C 0,0 km/h (0 Bft)
01.03.2020 18:50 7,7 C 7,5 C 5,9 C 7,2 C 6,3 C 0,0 C 67 % 74 % 1000,9 hPa 0,0 l/m 0,5 km/h (0 Bft) O-NO 67 0 min 2,0 C 6,3 C 0,0 km/h (0 Bft)
01.03.2020 18:55 7,6 C 7,5 C 5,8 C 7,1 C 6,2 C 0,0 C 68 % 75 % 1000,9 hPa 0,0 l/m 0,6 km/h (0 Bft) O 90 0 min 2,1 C 6,2 C 1,8 km/h (1 Bft)
01.03.2020 19:00 7,5 C 7,5 C 5,9 C 7,1 C 6,2 C 0,0 C 69 % 76 % 1000,9 hPa 0,0 l/m 0,6 km/h (0 Bft) N-NW 337 0 min 2,2 C 6,2 C 0,0 km/h (0 Bft)
01.03.2020 19:05 7,5 C 7,5 C 5,9 C 7,0 C 6,1 C 0,0 C 69 % 75 % 1000,9 hPa 0,0 l/m 0,6 km/h (0 Bft) O-NO 67 0 min 2,2 C 6,1 C 1,6 km/h (1 Bft)
01.03.2020 19:10 7,3 C 7,5 C 5,8 C 6,9 C 6,0 C 0,0 C 69 % 76 % 1000,9 hPa 0,0 l/m 0,6 km/h (0 Bft) O-NO 67 0 min 2,0 C 6,0 C 0,0 km/h (0 Bft)
01.03.2020 19:15 7,2 C 7,5 C 5,9 C 6,8 C 6,0 C 0,0 C 70 % 76 % 1000,9 hPa 0,0 l/m 1,0 km/h (0 Bft) O-NO 67 0 min 2,1 C 6,0 C 2,1 km/h (1 Bft)
01.03.2020 19:20 7,2 C 7,5 C 6,0 C 6,8 C 6,0 C 0,0 C 70 % 76 % 1000,6 hPa 0,0 l/m 1,3 km/h (1 Bft) O-NO 67 0 min 2,1 C 6,0 C 2,1 km/h (1 Bft)
01.03.2020 19:25 7,2 C 7,5 C 6,0 C 6,8 C 6,1 C 0,0 C 70 % 75 % 1000,6 hPa 0,0 l/m 1,3 km/h (1 Bft) O-NO 67 0 min 2,1 C 6,1 C 2,1 km/h (1 Bft)
01.03.2020 19:30 7,2 C 7,5 C 5,9 C 6,8 C 6,0 C 0,0 C 70 % 75 % 1000,6 hPa 0,0 l/m 1,0 km/h (0 Bft) NW 315 0 min 2,1 C 6,0 C 2,4 km/h (1 Bft)
01.03.2020 19:35 7,2 C 7,5 C 5,9 C 6,8 C 5,9 C 0,0 C 70 % 75 % 1000,6 hPa 0,0 l/m 0,6 km/h (0 Bft) N 360 0 min 2,1 C 5,9 C 0,0 km/h (0 Bft)
01.03.2020 19:40 7,1 C 7,5 C 5,9 C 6,7 C 5,9 C 0,0 C 70 % 74 % 1000,3 hPa 0,0 l/m 0,6 km/h (0 Bft) O-NO 67 0 min 2,0 C 5,9 C 1,6 km/h (1 Bft)
01.03.2020 19:45 7,1 C 7,5 C 5,7 C 6,6 C 5,7 C 0,0 C 70 % 75 % 1000,3 hPa 0,0 l/m 0,3 km/h (0 Bft) W 270 0 min 2,0 C 5,7 C 0,0 km/h (0 Bft)
01.03.2020 19:50 6,9 C 7,5 C 5,6 C 6,5 C 5,6 C 0,0 C 70 % 75 % 1000,3 hPa 0,0 l/m 0,3 km/h (0 Bft) O-NO 67 0 min 1,8 C 5,6 C 0,0 km/h (0 Bft)
01.03.2020 19:55 6,8 C 7,5 C 5,2 C 6,4 C 5,5 C 0,0 C 70 % 75 % 1000,3 hPa 0,0 l/m 0,2 km/h (0 Bft) NO 45 0 min 1,7 C 5,5 C 0,0 km/h (0 Bft)
01.03.2020 20:00 6,6 C 7,5 C 4,9 C 6,1 C 5,2 C 0,0 C 70 % 75 % 1000,5 hPa 0,0 l/m 0,3 km/h (0 Bft) NO 45 0 min 1,5 C 5,2 C 0,0 km/h (0 Bft)
01.03.2020 20:05 6,2 C 7,6 C 4,6 C 5,7 C 4,6 C 0,0 C 70 % 77 % 1000,5 hPa 0,0 l/m 0,2 km/h (0 Bft) NO 45 0 min 1,1 C 4,6 C 0,0 km/h (0 Bft)
01.03.2020 20:10 6,1 C 7,6 C 4,3 C 5,5 C 4,3 C 0,0 C 70 % 76 % 1000,5 hPa 0,0 l/m 0,0 km/h (0 Bft) NO 45 0 min 1,0 C 4,3 C 0,0 km/h (0 Bft)
01.03.2020 20:15 5,8 C 7,6 C 4,3 C 5,2 C 4,1 C 0,0 C 71 % 77 % 1000,5 hPa 0,0 l/m 0,0 km/h (0 Bft) NO 45 0 min 1,0 C 4,1 C 0,0 km/h (0 Bft)
01.03.2020 20:20 5,8 C 7,6 C 4,2 C 5,2 C 4,0 C 0,0 C 71 % 78 % 1000,1 hPa 0,0 l/m 0,0 km/h (0 Bft) NO 45 0 min 1,0 C 4,0 C 0,0 km/h (0 Bft)
01.03.2020 20:25 5,7 C 7,6 C 4,3 C 5,1 C 3,9 C 0,0 C 72 % 79 % 1000,1 hPa 0,0 l/m 0,0 km/h (0 Bft) O 90 0 min 1,1 C 3,9 C 0,0 km/h (0 Bft)
01.03.2020 20:30 5,7 C 7,6 C 4,4 C 5,1 C 4,0 C 0,0 C 73 % 79 % 1000,1 hPa 0,0 l/m 0,2 km/h (0 Bft) S-SO 157 0 min 1,2 C 4,0 C 0,0 km/h (0 Bft)
01.03.2020 20:35 5,6 C 7,6 C 4,3 C 5,1 C 4,0 C 0,0 C 74 % 79 % 1000,1 hPa 0,0 l/m 0,2 km/h (0 Bft) O-NO 67 0 min 1,3 C 4,0 C 0,0 km/h (0 Bft)
01.03.2020 20:40 5,7 C 7,6 C 4,3 C 5,2 C 4,1 C 0,0 C 74 % 79 % 1000,1 hPa 0,0 l/m 0,0 km/h (0 Bft) O-NO 67 0 min 1,4 C 4,1 C 0,0 km/h (0 Bft)
01.03.2020 20:45 5,5 C 7,6 C 4,2 C 5,0 C 4,0 C 0,0 C 74 % 80 % 1000,1 hPa 0,0 l/m 0,2 km/h (0 Bft) N-NO 22 0 min 1,2 C 4,0 C 0,0 km/h (0 Bft)
01.03.2020 20:50 5,4 C 7,6 C 4,1 C 4,9 C 4,0 C 0,0 C 74 % 80 % 1000,1 hPa 0,0 l/m 0,3 km/h (0 Bft) O-NO 67 0 min 1,1 C 4,0 C 0,0 km/h (0 Bft)
01.03.2020 20:55 5,5 C 7,6 C 4,1 C 5,0 C 4,0 C 0,0 C 75 % 80 % 1000,1 hPa 0,0 l/m 0,2 km/h (0 Bft) O-NO 67 0 min 1,4 C 4,0 C 0,0 km/h (0 Bft)
01.03.2020 21:00 5,5 C 7,6 C 4,0 C 5,0 C 4,0 C 0,0 C 76 % 80 % 999,9 hPa 0,0 l/m 0,5 km/h (0 Bft) O-NO 67 0 min 1,6 C 4,0 C 2,1 km/h (1 Bft)
01.03.2020 21:05 5,2 C 7,6 C 4,0 C 4,8 C 4,0 C 0,0 C 76 % 81 % 999,9 hPa 0,0 l/m 0,5 km/h (0 Bft) O-SO 112 0 min 1,3 C 4,0 C 0,0 km/h (0 Bft)
01.03.2020 21:10 5,2 C 7,6 C 3,7 C 4,7 C 3,6 C 0,0 C 75 % 80 % 999,9 hPa 0,0 l/m 0,3 km/h (0 Bft) O-SO 112 0 min 1,1 C 3,6 C 0,0 km/h (0 Bft)
01.03.2020 21:15 4,8 C 7,6 C 3,5 C 4,2 C 3,1 C 0,0 C 75 % 81 % 999,9 hPa 0,0 l/m 0,0 km/h (0 Bft) N-NO 22 0 min 0,8 C 3,1 C 0,0 km/h (0 Bft)
01.03.2020 21:20 4,7 C 7,6 C 3,4 C 4,2 C 3,1 C 0,0 C 75 % 81 % 999,9 hPa 0,0 l/m 0,0 km/h (0 Bft) N-NO 22 0 min 0,7 C 3,1 C 0,0 km/h (0 Bft)
01.03.2020 21:25 4,8 C 7,5 C 3,6 C 4,3 C 3,3 C 0,0 C 77 % 82 % 999,9 hPa 0,0 l/m 0,2 km/h (0 Bft) N-NW 337 0 min 1,1 C 3,3 C 0,0 km/h (0 Bft)
01.03.2020 21:30 4,9 C 7,5 C 3,6 C 4,4 C 3,3 C 0,0 C 77 % 82 % 999,9 hPa 0,0 l/m 0,2 km/h (0 Bft) N-NW 337 0 min 1,2 C 3,3 C 0,0 km/h (0 Bft)
01.03.2020 21:35 4,8 C 7,5 C 3,4 C 4,3 C 3,3 C 0,0 C 77 % 81 % 999,9 hPa 0,0 l/m 0,0 km/h (0 Bft) O-NO 67 0 min 1,1 C 3,3 C 0,0 km/h (0 Bft)
01.03.2020 21:40 4,7 C 7,5 C 3,3 C 4,2 C 3,3 C 0,0 C 77 % 82 % 999,9 hPa 0,0 l/m 0,0 km/h (0 Bft) O-NO 67 0 min 1,0 C 3,3 C 0,0 km/h (0 Bft)
01.03.2020 21:45 4,5 C 7,5 C 3,2 C 4,0 C 3,0 C 0,0 C 77 % 82 % 999,9 hPa 0,0 l/m 0,0 km/h (0 Bft) S 180 0 min 0,8 C 3,0 C 0,0 km/h (0 Bft)
01.03.2020 21:50 4,5 C 7,5 C 3,1 C 4,0 C 3,0 C 0,0 C 78 % 82 % 999,9 hPa 0,0 l/m 0,0 km/h (0 Bft) O-SO 112 0 min 1,0 C 3,0 C 0,0 km/h (0 Bft)
01.03.2020 21:55 4,5 C 7,5 C 3,1 C 3,9 C 2,8 C 0,0 C 78 % 82 % 999,9 hPa 0,0 l/m 0,0 km/h (0 Bft) O-SO 112 0 min 1,0 C 2,8 C 0,0 km/h (0 Bft)
01.03.2020 22:00 4,4 C 7,5 C 3,0 C 3,9 C 3,0 C 0,0 C 78 % 82 % 999,7 hPa 0,0 l/m 0,0 km/h (0 Bft) NO 45 0 min 0,9 C 3,0 C 0,0 km/h (0 Bft)
01.03.2020 22:05 4,3 C 7,5 C 3,1 C 4,0 C 3,5 C 0,0 C 78 % 82 % 999,7 hPa 0,0 l/m 0,0 km/h (0 Bft) NO 45 0 min 0,8 C 3,5 C 0,0 km/h (0 Bft)
01.03.2020 22:10 4,2 C 7,5 C 3,1 C 3,9 C 3,4 C 0,0 C 79 % 82 % 999,7 hPa 0,0 l/m 0,0 km/h (0 Bft) NO 45 0 min 0,9 C 3,4 C 0,0 km/h (0 Bft)
01.03.2020 22:15 4,3 C 7,5 C 3,2 C 4,0 C 3,5 C 0,0 C 79 % 83 % 999,7 hPa 0,0 l/m 0,0 km/h (0 Bft) NO 45 0 min 1,0 C 3,5 C 0,0 km/h (0 Bft)
01.03.2020 22:20 4,3 C 7,5 C 3,2 C 4,1 C 3,6 C 0,0 C 79 % 83 % 999,1 hPa 0,0 l/m 0,0 km/h (0 Bft) NO 45 0 min 1,0 C 3,6 C 0,0 km/h (0 Bft)
01.03.2020 22:25 4,3 C 7,5 C 3,3 C 4,0 C 3,5 C 0,0 C 80 % 83 % 999,1 hPa 0,0 l/m 0,0 km/h (0 Bft) NO 45 0 min 1,2 C 3,5 C 0,0 km/h (0 Bft)
01.03.2020 22:30 4,3 C 7,5 C 3,3 C 4,0 C 3,5 C 0,0 C 80 % 83 % 999,1 hPa 0,0 l/m 0,0 km/h (0 Bft) NO 45 0 min 1,2 C 3,5 C 0,0 km/h (0 Bft)
01.03.2020 22:35 4,3 C 7,5 C 3,2 C 4,0 C 3,5 C 0,0 C 80 % 83 % 999,1 hPa 0,0 l/m 0,0 km/h (0 Bft) NO 45 0 min 1,2 C 3,5 C 0,0 km/h (0 Bft)
01.03.2020 22:40 4,1 C 7,5 C 3,1 C 3,9 C 3,4 C 0,0 C 80 % 83 % 998,9 hPa 0,0 l/m 0,0 km/h (0 Bft) NO 45 0 min 1,0 C 3,4 C 0,0 km/h (0 Bft)
01.03.2020 22:45 4,0 C 7,5 C 2,9 C 3,8 C 3,3 C 0,0 C 80 % 83 % 998,9 hPa 0,0 l/m 0,0 km/h (0 Bft) NO 45 0 min 0,9 C 3,3 C 0,0 km/h (0 Bft)
01.03.2020 22:50 4,0 C 7,5 C 2,9 C 3,8 C 3,3 C 0,0 C 80 % 83 % 998,9 hPa 0,0 l/m 0,0 km/h (0 Bft) NO 45 0 min 0,9 C 3,3 C 0,0 km/h (0 Bft)
01.03.2020 22:55 3,9 C 7,5 C 2,8 C 3,7 C 3,2 C 0,0 C 80 % 83 % 998,9 hPa 0,0 l/m 0,0 km/h (0 Bft) NO 45 0 min 0,8 C 3,2 C 0,0 km/h (0 Bft)
01.03.2020 23:00 3,9 C 7,5 C 2,8 C 3,6 C 3,1 C 0,0 C 80 % 83 % 998,5 hPa 0,0 l/m 0,0 km/h (0 Bft) NO 45 0 min 0,8 C 3,1 C 0,0 km/h (0 Bft)
01.03.2020 23:05 3,9 C 7,5 C 2,8 C 3,7 C 3,2 C 0,0 C 80 % 83 % 998,5 hPa 0,0 l/m 0,2 km/h (0 Bft) NO 45 0 min 0,8 C 3,2 C 1,8 km/h (1 Bft)
01.03.2020 23:10 3,8 C 7,5 C 2,9 C 3,6 C 3,3 C 0,0 C 81 % 84 % 998,5 hPa 0,0 l/m 0,3 km/h (0 Bft) NW 315 0 min 0,8 C 3,3 C 0,0 km/h (0 Bft)
01.03.2020 23:15 4,0 C 7,5 C 3,1 C 3,9 C 3,6 C 0,0 C 81 % 83 % 998,5 hPa 0,0 l/m 0,2 km/h (0 Bft) NW 315 0 min 1,0 C 3,6 C 0,0 km/h (0 Bft)
01.03.2020 23:20 4,0 C 7,4 C 3,2 C 4,0 C 3,9 C 0,0 C 81 % 83 % 998,2 hPa 0,0 l/m 0,0 km/h (0 Bft) NW 315 0 min 1,0 C 3,9 C 0,0 km/h (0 Bft)
01.03.2020 23:25 4,1 C 7,4 C 3,3 C 4,1 C 4,0 C 0,0 C 81 % 83 % 998,2 hPa 0,0 l/m 0,0 km/h (0 Bft) NW 315 0 min 1,1 C 4,0 C 0,0 km/h (0 Bft)
01.03.2020 23:30 4,0 C 7,4 C 3,3 C 4,0 C 3,9 C 0,0 C 81 % 83 % 998,2 hPa 0,0 l/m 0,0 km/h (0 Bft) NW 315 0 min 1,0 C 3,9 C 0,0 km/h (0 Bft)
01.03.2020 23:35 3,9 C 7,4 C 3,1 C 3,8 C 3,6 C 0,0 C 81 % 83 % 998,2 hPa 0,0 l/m 0,0 km/h (0 Bft) NO 45 0 min 0,9 C 3,6 C 0,0 km/h (0 Bft)
01.03.2020 23:40 3,9 C 7,4 C 3,2 C 3,8 C 3,7 C 0,0 C 81 % 83 % 997,7 hPa 0,0 l/m 0,0 km/h (0 Bft) NO 45 0 min 0,9 C 3,7 C 0,0 km/h (0 Bft)
01.03.2020 23:45 4,1 C 7,4 C 3,5 C 4,1 C 4,1 C 0,0 C 82 % 84 % 997,7 hPa 0,0 l/m 0,2 km/h (0 Bft) S 180 0 min 1,3 C 4,1 C 0,0 km/h (0 Bft)
01.03.2020 23:50 4,4 C 7,4 C 3,7 C 4,5 C 4,5 C 0,1 C 82 % 84 % 997,7 hPa 0,0 l/m 0,8 km/h (0 Bft) SW 225 0 min 1,6 C 4,5 C 2,6 km/h (1 Bft)
01.03.2020 23:55 4,7 C 7,4 C 3,9 C 5,0 C 5,0 C 0,3 C 82 % 83 % 997,7 hPa 0,0 l/m 1,1 km/h (1 Bft) W 270 0 min 1,9 C 5,0 C 2,6 km/h (1 Bft)
_ Min-Zeit 23:10 10:25 22:55 23:00 21:55 00:00 15:25 15:15 23:40 - 20:10 - - - 21:20 04:00 17:50
Minimum _ 3,8 C 6,8 C 2,8 C 3,6 C 2,8 C 0,0 C 54 % 55 % 997,7 hPa - 0,0 km/h (0 Bft) - - - 0,7 C 2,1 C 0,0 km/h (0 Bft)
_ Max-Zeit 15:20 20:05 15:15 15:20 15:20 14:50 23:45 23:10 01:40 00:00 13:05 - - 14:50 10:25 15:20 13:55
Maximum _ 11,7 C 7,6 C 11,5 C 15,0 C 15,1 C 3,6 C 82 % 84 % 1003,2 hPa 0,0 l/m 14,0 km/h
W-SW (3 Bft)
- - 5 min 4,5 C 15,1 C 34,4 km/h
S (5 Bft)
Durchschnitt _ 7,7 C 7,2 C 7,0 C 7,9 C 7,3 C 0,4 C 71 % 73 % 1001,4 hPa #0,0 l/m 5,3 km/h (1 Bft) S - #15 min. 2,7 C 6,8 C 7,2 km/h (2 Bft)
2020 www.wetterstation-wechselburg.de